GW0795 Weather Reports


time (UTC)temp
F
wind
direction
speed
knots
gust
knots
rain 1hr
in
rain 24hr
in
rain mn
in
humidity
%
barometer
mb
20260506163022 51 192 0.0 2.6 0.00 0.00 0.00 92 1020.1
20260506162510 51 200 0.9 2.6 0.00 0.00 0.00 92 1020.0
20260506162008 51 168 0.9 5.2 0.00 0.00 0.00 92 1020.0
20260506161524 51 187 1.7 4.3 0.00 0.00 0.00 92 1019.9
20260506161010 51 207 0.0 4.3 0.00 0.00 0.00 92 1019.8
20260506160510 51 200 0.9 2.6 0.00 0.00 0.00 92 1019.9
20260506160030 51 191 0.0 4.3 0.00 0.00 0.00 92 1020.0
20260506155509 51 213 0.0 3.5 0.00 0.00 0.00 92 1020.0
20260506155010 51 190 1.7 3.5 0.00 0.00 0.00 92 1020.1
20260506154529 51 216 0.0 1.7 0.00 0.00 0.00 92 1020.2
20260506154008 51 245 0.0 1.7 0.00 0.00 0.00 92 1020.3
20260506153511 51 88 0.0 1.7 0.00 0.00 0.00 92 1020.3
20260506153014 51 209 0.0 1.7 0.00 0.00 0.00 92 1020.2
20260506152508 51 177 0.9 1.7 0.00 0.00 0.00 91 1020.1
20260506152009 51 191 0.0 1.7 0.00 0.00 0.00 92 1020.0
20260506151502 51 190 0.0 3.5 0.00 0.00 0.00 92 1019.8
20260506151001 51 195 0.9 4.3 0.00 0.00 0.00 91 1019.7
20260506150502 51 196 1.7 4.3 0.00 0.00 0.00 91 1019.8
20260506150005 51 218 0.0 3.5 0.00 0.00 0.00 91 1019.9
20260506145505 51 184 0.0 1.7 0.00 0.00 0.00 92 1019.9
20260506145008 51 302 0.0 1.7 0.00 0.00 0.00 92 1020.0
20260506144521 51 36 0.0 1.7 0.00 0.00 0.00 92 1020.0
20260506144008 51 276 0.0 4.3 0.00 0.00 0.00 91 1020.0
20260506143506 51 255 0.0 4.3 0.00 0.00 0.00 91 1019.9
20260506143017 51 252 0.0 2.6 0.00 0.00 0.00 91 1019.7
20260506142505 51 222 0.0 2.6 0.00 0.00 0.00 91 1019.8
20260506142009 51 211 0.0 4.3 0.00 0.00 0.00 91 1019.6
20260506141528 51 200 0.9 4.3 0.00 0.00 0.00 91 1019.5
20260506141015 51 201 0.9 1.7 0.00 0.00 0.00 90 1019.7
20260506140502 51 196 0.0 1.7 0.00 0.00 0.00 90 1019.7
20260506140006 51 188 0.0 2.6 0.00 0.00 0.00 90 1019.7
20260506135503 51 180 0.0 4.3 0.00 0.00 0.00 90 1019.8
20260506135003 51 180 0.0 4.3 0.00 0.00 0.00 90 1019.6
20260506134508 52 105 0.9 1.7 0.00 0.00 0.00 90 1019.5
20260506134003 52 94 0.0 1.7 0.00 0.00 0.00 90 1019.7
20260506133504 52 249 0.0 1.7 0.00 0.00 0.00 90 1019.6
20260506133016 52 209 0.0 2.6 0.00 0.00 0.00 89 1019.4
20260506132507 52 198 0.0 2.6 0.00 0.00 0.00 89 1019.5
20260506132007 52 201 0.0 1.7 0.00 0.00 0.00 89 1019.5
20260506131520 52 199 0.0 4.3 0.00 0.00 0.00 89 1019.3
20260506131006 51 185 0.9 4.3 0.00 0.00 0.00 89 1019.0
20260506130508 52 181 0.9 4.3 0.00 0.00 0.00 89 1019.2
20260506130024 52 200 0.0 2.6 0.00 0.00 0.00 89 1019.2
20260506125510 52 217 0.0 1.7 0.00 0.00 0.00 89 1019.2
20260506125002 52 202 0.0 1.7 0.00 0.00 0.00 89 1019.2
20260506124508 52 202 0.9 1.7 0.00 0.00 0.00 89 1019.1
20260506124006 52 157 0.0 1.7 0.00 0.00 0.00 89 1019.0
20260506123503 52 157 0.0 0.9 0.00 0.00 0.00 89 1019.0
20260506123014 52 185 0.0 0.0 0.00 0.00 0.00 89 1019.0
20260506122505 52 185 0.0 0.0 0.00 0.00 0.00 89 1019.0
20260506122012 52 185 0.0 0.0 0.00 0.00 0.00 89 1018.9
20260506121519 52 179 0.0 0.9 0.00 0.00 0.00 89 1018.8
20260506121009 52 194 0.0 1.7 0.00 0.00 0.00 89 1018.8
20260506120507 52 202 0.0 1.7 0.00 0.00 0.00 89 1018.8
20260506120043 52 186 0.9 3.5 0.00 0.00 0.00 89 1018.8
20260506115512 52 246 0.0 3.5 0.00 0.00 0.00 89 1018.7
20260506115007 52 199 0.0 1.7 0.00 0.00 0.00 89 1018.7
20260506114526 52 200 0.0 1.7 0.00 0.00 0.00 89 1018.6
20260506114012 52 174 0.0 1.7 0.00 0.00 0.00 89 1018.6
20260506113510 52 184 0.0 0.0 0.00 0.00 0.00 89 1018.6
20260506113012 52 199 0.0 1.7 0.00 0.00 0.00 89 1018.6
20260506112504 52 199 0.0 1.7 0.00 0.00 0.00 88 1018.6
20260506112007 52 185 0.0 1.7 0.00 0.00 0.00 88 1018.6
20260506111515 52 180 0.9 1.7 0.00 0.00 0.00 88 1018.6
20260506111003 52 194 0.0 1.7 0.00 0.00 0.00 88 1018.6
20260506110507 52 194 0.0 1.7 0.00 0.00 0.00 88 1018.6
20260506110024 52 212 0.9 1.7 0.00 0.00 0.00 88 1018.5
20260506105508 52 229 0.0 1.7 0.00 0.00 0.00 88 1018.5
20260506105006 52 213 0.0 2.6 0.00 0.00 0.00 88 1018.4
20260506104536 52 213 0.9 4.3 0.00 0.00 0.00 88 1018.4
20260506104011 52 216 1.7 4.3 0.00 0.00 0.00 87 1018.4
20260506103508 52 202 0.9 2.6 0.00 0.00 0.00 88 1018.3
20260506103038 52 214 0.9 2.6 0.00 0.00 0.00 87 1018.3
20260506102516 52 196 0.0 3.5 0.00 0.00 0.00 88 1018.3
20260506102007 52 196 0.0 3.5 0.00 0.00 0.00 88 1018.3
20260506101513 52 198 0.9 2.6 0.00 0.00 0.00 87 1018.2
20260506101009 52 214 0.0 0.9 0.00 0.00 0.00 88 1018.2
20260506100506 52 214 0.0 0.9 0.00 0.00 0.00 88 1018.1
20260506100015 52 227 0.0 2.6 0.00 0.00 0.00 88 1018.1
20260506095505 52 227 0.0 2.6 0.00 0.00 0.00 88 1018.1
20260506095009 52 227 0.0 2.6 0.00 0.00 0.00 87 1018.0
20260506094520 52 215 0.0 0.0 0.00 0.00 0.00 88 1018.0
20260506094012 52 215 0.0 0.0 0.00 0.00 0.00 88 1018.0
20260506093510 52 215 0.0 1.7 0.00 0.00 0.00 88 1018.1
20260506093024 52 215 0.0 3.5 0.00 0.00 0.00 88 1018.0
20260506092508 52 216 0.9 3.5 0.00 0.00 0.00 88 1018.0
20260506092013 52 202 0.0 0.9 0.00 0.00 0.00 88 1018.0
20260506091528 52 240 0.0 1.7 0.00 0.00 0.00 88 1018.0
20260506091007 52 217 0.0 1.7 0.00 0.00 0.00 88 1017.9
20260506090503 52 221 0.0 1.7 0.00 0.00 0.00 88 1017.9
20260506090015 52 208 0.0 0.0 0.00 0.00 0.00 88 1017.9
20260506085507 52 208 0.0 0.0 0.00 0.00 0.00 88 1017.8
20260506085004 52 208 0.0 0.0 0.00 0.00 0.00 88 1017.8
20260506084539 52 208 0.0 1.7 0.00 0.00 0.00 88 1017.7
20260506084012 52 208 0.0 2.6 0.00 0.00 0.00 88 1017.7
20260506083508 52 207 0.0 3.5 0.00 0.00 0.00 87 1017.6
20260506082500 52 195 0.0 3.5 0.00 0.00 0.00 88 1017.6
20260506082004 52 186 0.9 4.3 0.00 0.00 0.00 88 1017.6
20260506081508 51 203 0.9 4.3 0.00 0.00 0.00 88 1017.6
20260506081008 51 240 0.9 3.5 0.00 0.00 0.00 88 1017.6
20260506080504 51 198 0.0 3.5 0.00 0.00 0.00 88 1017.5
20260506073505 52 208 0.0 1.7 0.00 0.00 0.00 88 1017.3
20260506073002 52 209 0.0 1.7 0.00 0.00 0.00 88 1017.4
20260506072502 52 209 0.0 1.7 0.00 0.00 0.00 88 1017.3
20260506072001 52 209 0.0 1.7 0.00 0.00 0.00 87 1017.3
20260506071505 52 209 0.0 1.7 0.00 0.00 0.00 87 1017.3
20260506071004 52 189 0.0 0.0 0.00 0.00 0.00 87 1017.2
20260506070504 52 184 0.0 0.0 0.00 0.00 0.00 87 1017.1
20260506062508 53 193 0.0 0.0 0.00 0.00 0.00 87 1016.8
20260506062010 53 195 0.0 0.9 0.00 0.00 0.00 86 1016.7
20260506061504 53 196 0.0 1.7 0.00 0.00 0.00 87 1016.6
20260506061004 53 200 0.0 1.7 0.00 0.00 0.00 86 1016.5
20260506060504 54 200 0.0 1.7 0.00 0.00 0.00 86 1016.5
20260506051010 55 185 0.0 1.7 0.00 0.00 0.00 83 1016.0
20260506050507 56 172 0.0 1.7 0.00 0.00 0.00 83 1016.0
20260506045005 56 219 0.0 2.6 0.00 0.00 0.00 83 1015.9
20260506044513 56 200 0.0 2.6 0.00 0.00 0.00 83 1015.9
20260506044006 56 190 0.0 2.6 0.00 0.00 0.00 83 1015.9
20260506043508 56 205 0.0 2.6 0.00 0.00 0.00 84 1015.9
20260506043014 56 211 0.0 0.9 0.00 0.00 0.00 83 1015.9
20260506042508 56 211 0.0 0.9 0.00 0.00 0.00 83 1015.9
20260506042008 56 212 0.0 0.0 0.00 0.00 0.00 83 1015.9
20260506041520 56 212 0.0 0.0 0.00 0.00 0.00 83 1015.9
20260506041009 56 212 0.0 0.0 0.00 0.00 0.00 82 1015.9
20260506040510 56 212 0.0 0.0 0.00 0.00 0.00 82 1015.8
20260506040023 56 212 0.0 0.0 0.00 0.00 0.00 82 1015.8
20260506035508 57 212 0.0 0.0 0.00 0.00 0.00 81 1015.7
20260506035008 57 212 0.0 0.0 0.00 0.00 0.00 81 1015.7
20260506034529 57 212 0.0 0.0 0.00 0.00 0.00 82 1015.7
20260506034004 57 212 0.0 0.0 0.00 0.00 0.00 81 1015.6
20260506033504 57 212 0.0 0.0 0.00 0.00 0.00 80 1015.6
20260506033014 58 212 0.0 0.0 0.00 0.00 0.00 80 1015.5
20260506032504 58 212 0.0 0.0 0.00 0.00 0.00 79 1015.6
20260506032010 58 212 0.0 0.0 0.00 0.00 0.00 80 1015.6
20260506031516 58 212 0.0 0.0 0.00 0.00 0.00 79 1015.4
20260506031008 58 212 0.0 0.0 0.00 0.00 0.00 78 1015.4
20260506030512 59 212 0.0 0.0 0.00 0.00 0.00 78 1015.4
20260506030020 59 212 0.0 2.6 0.00 0.00 0.00 78 1015.3
20260506025511 59 212 0.0 2.6 0.00 0.00 0.00 77 1015.3
20260506025010 59 173 0.0 1.7 0.00 0.00 0.00 77 1015.3
20260506024524 59 143 0.0 2.6 0.00 0.00 0.00 77 1015.2
20260506024015 60 156 0.0 3.5 0.00 0.00 0.00 76 1015.2
20260506023513 60 171 0.9 3.5 0.00 0.00 0.00 75 1015.2
20260506023045 60 142 0.0 1.7 0.00 0.00 0.00 75 1015.4
20260506022506 60 185 0.0 1.7 0.00 0.00 0.00 75 1015.3
20260506022003 60 174 0.0 2.6 0.00 0.00 0.00 75 1015.3
20260506021521 61 174 0.9 1.7 0.00 0.00 0.00 74 1015.3
20260506021011 61 149 0.0 1.7 0.00 0.00 0.00 73 1015.3
20260506020508 61 130 0.9 1.7 0.00 0.00 0.00 72 1015.3
20260506020025 61 213 0.9 2.6 0.00 0.00 0.00 72 1015.3
20260506015501 61 188 0.0 2.6 0.00 0.00 0.00 72 1015.3
20260506015004 61 242 0.0 2.6 0.00 0.00 0.00 71 1015.3
20260506014504 61 156 0.9 6.1 0.00 0.00 0.00 71 1015.3
20260506014004 61 207 0.0 6.1 0.00 0.00 0.00 72 1015.3
20260506013504 61 200 0.9 4.3 0.00 0.00 0.00 71 1015.3
20260506013007 61 142 0.0 3.5 0.00 0.00 0.00 72 1015.3
20260506012503 61 178 0.0 3.5 0.00 0.00 0.00 72 1015.3
20260506012008 61 194 0.0 3.5 0.00 0.00 0.00 73 1015.3
20260506011514 61 165 0.9 3.5 0.00 0.00 0.00 71 1015.3
20260506011004 61 215 0.9 4.3 0.00 0.00 0.00 73 1015.5
20260506010504 61 157 2.6 4.3 0.00 0.00 0.00 72 1015.4
20260506010016 61 166 1.7 4.3 0.00 0.00 0.00 71 1015.4
20260506005500 62 166 0.0 2.6 0.00 0.00 0.00 71 1015.3
20260506005000 61 172 0.9 3.5 0.00 0.00 0.00 72 1015.4
20260506004505 61 130 0.9 3.5 0.00 0.00 0.00 72 1015.4
20260506004006 61 294 1.7 3.5 0.00 0.00 0.00 71 1015.5
20260506003507 62 277 1.7 2.6 0.00 0.00 0.00 71 1015.6
20260506003004 62 295 0.9 4.3 0.00 0.00 0.00 71 1015.6
20260506002503 62 308 0.0 4.3 0.00 0.00 0.00 72 1015.6
20260506002003 62 333 1.7 5.2 0.00 0.00 0.00 71 1015.6
20260506001509 61 302 0.9 6.1 0.00 0.00 0.00 72 1015.6
20260506001004 61 281 1.7 6.1 0.00 0.00 0.00 72 1015.6
20260506000507 61 230 1.7 3.5 0.00 0.00 0.00 72 1015.7
20260506000014 61 296 0.9 3.5 0.00 0.00 0.00 71 1015.8
20260505235508 61 281 1.7 6.1 0.00 0.00 0.00 71 1015.8
20260505235006 61 257 1.7 6.1 0.00 0.00 0.00 72 1015.8
20260505234519 61 285 1.7 5.2 0.00 0.00 0.00 72 1015.9
20260505234004 61 277 1.7 6.1 0.00 0.00 0.00 72 1015.9
20260505233508 61 335 2.6 5.2 0.00 0.00 0.00 71 1016.0
20260505233004 61 173 0.9 5.2 0.00 0.00 0.00 73 1016.1
20260505232504 61 344 1.7 5.2 0.00 0.00 0.00 72 1016.1
20260505232004 61 292 2.6 6.1 0.00 0.00 0.00 71 1016.0
20260505231512 62 240 2.6 6.1 0.00 0.00 0.00 70 1016.0
20260505231005 62 199 1.7 5.2 0.00 0.00 0.00 70 1016.0
20260505230504 61 350 0.0 2.6 0.00 0.00 0.00 70 1016.0
20260505230021 62 225 0.9 5.2 0.00 0.00 0.00 70 1016.1
20260505225509 61 278 0.9 5.2 0.00 0.00 0.00 71 1016.2
20260505225008 62 317 0.9 6.1 0.00 0.00 0.00 71 1016.3
20260505224518 61 271 0.9 6.1 0.00 0.00 0.00 72 1016.3
20260505224007 61 264 2.6 6.1 0.00 0.00 0.00 70 1016.3
20260505223510 61 61 0.9 6.1 0.00 0.00 0.00 71 1016.4
20260505223020 61 309 1.7 3.5 0.00 0.00 0.00 72 1016.4
20260505222507 62 317 1.7 6.1 0.00 0.00 0.00 70 1016.4
20260505222004 61 271 1.7 6.1 0.00 0.00 0.00 72 1016.6
20260505221504 61 286 0.9 3.5 0.00 0.00 0.00 73 1016.6
20260505221003 61 273 0.9 4.3 0.00 0.00 0.00 71 1016.6
20260505220503 60 271 1.7 5.2 0.00 0.00 0.00 73 1016.7
20260505220009 60 312 1.7 5.2 0.00 0.00 0.00 72 1016.8
20260505215508 60 286 2.6 5.2 0.00 0.00 0.00 72 1016.8
20260505215004 60 194 1.7 4.3 0.00 0.00 0.00 73 1016.8
20260505214517 60 220 1.7 5.2 0.00 0.00 0.00 73 1016.7
20260505214011 60 272 1.7 5.2 0.00 0.00 0.00 73 1016.7
20260505213504 60 217 1.7 3.5 0.00 0.00 0.00 74 1016.7
20260505213028 61 255 0.9 2.6 0.00 0.00 0.00 72 1016.8
20260505212510 61 53 0.9 3.5 0.00 0.00 0.00 73 1016.8
20260505212011 60 271 0.9 3.5 0.00 0.00 0.00 73 1016.8
20260505211524 60 314 0.9 5.2 0.00 0.00 0.00 73 1016.7
20260505211003 60 286 1.7 5.2 0.00 0.00 0.00 73 1016.8
20260505210503 60 281 0.9 5.2 0.00 0.00 0.00 74 1016.9
20260505210012 60 298 1.7 5.2 0.00 0.00 0.00 73 1016.9
20260505205506 61 316 0.9 1.7 0.00 0.00 0.00 73 1017.0
20260505205004 60 186 0.9 1.7 0.00 0.00 0.00 75 1017.0
20260505204514 60 163 0.9 3.5 0.00 0.00 0.00 74 1017.0
20260505204008 59 225 0.9 3.5 0.00 0.00 0.00 74 1017.0
20260505203510 59 262 0.0 3.5 0.00 0.00 0.00 75 1017.0
20260505203024 59 305 0.9 2.6 0.00 0.00 0.00 75 1017.0
20260505202507 59 287 0.9 2.6 0.00 0.00 0.00 76 1017.0
20260505202009 59 257 0.9 1.7 0.00 0.00 0.00 75 1017.0
20260505201530 59 337 0.0 5.2 0.00 0.00 0.00 76 1016.9
20260505201011 58 297 0.0 5.2 0.00 0.00 0.00 77 1016.8
20260505200512 58 210 0.9 1.7 0.00 0.00 0.00 76 1016.9
20260505200026 59 324 0.9 2.6 0.00 0.00 0.00 76 1016.9
20260505195504 58 272 0.0 2.6 0.00 0.00 0.00 77 1016.9
20260505195005 58 302 0.9 3.5 0.00 0.00 0.00 77 1017.0
20260505194509 58 273 1.7 3.5 0.00 0.00 0.00 77 1016.9
20260505194010 58 250 1.7 3.5 0.00 0.00 0.00 77 1016.8
20260505193506 58 71 0.0 3.5 0.00 0.00 0.00 77 1016.8
20260505193015 58 276 1.7 4.3 0.00 0.00 0.00 76 1016.8
20260505192512 59 200 0.0 4.3 0.00 0.00 0.00 78 1016.8
20260505192007 58 225 0.0 2.6 0.00 0.00 0.00 79 1016.8
20260505191519 57 180 0.9 2.6 0.00 0.00 0.00 79 1016.8
20260505191008 57 223 0.9 1.7 0.00 0.00 0.00 79 1016.8
20260505190510 57 180 0.9 6.1 0.00 0.00 0.00 79 1016.8
20260505190025 57 195 1.7 6.1 0.00 0.00 0.00 79 1016.8
20260505185514 57 200 1.7 3.5 0.00 0.00 0.00 79 1016.7
20260505185010 57 186 0.9 3.5 0.00 0.00 0.00 81 1016.7
20260505184534 56 178 0.9 5.2 0.00 0.00 0.00 80 1016.7
20260505184007 56 159 0.9 5.2 0.00 0.00 0.00 81 1016.7
20260505183504 56 193 2.6 5.2 0.00 0.00 0.00 80 1016.7
20260505183019 56 200 0.9 3.5 0.00 0.00 0.00 80 1016.8
20260505182507 56 188 0.9 4.3 0.00 0.00 0.00 81 1016.7
20260505182012 56 140 1.7 4.3 0.00 0.00 0.00 80 1016.6
20260505181520 56 184 1.7 4.3 0.00 0.00 0.00 80 1016.6
20260505181009 56 186 1.7 4.3 0.00 0.00 0.00 81 1016.7
20260505180511 56 194 0.0 2.6 0.00 0.00 0.00 80 1016.7
20260505180024 56 199 0.0 1.7 0.00 0.00 0.00 81 1016.6
20260505175509 56 317 0.0 1.7 0.00 0.00 0.00 81 1016.6
20260505175007 56 286 0.9 2.6 0.00 0.00 0.00 81 1016.6
20260505174535 56 329 0.9 2.6 0.00 0.00 0.00 82 1016.6
20260505174010 55 108 0.0 1.7 0.00 0.00 0.00 82 1016.6
20260505173509 55 286 0.9 1.7 0.00 0.00 0.00 82 1016.6
20260505173029 55 296 0.0 1.7 0.00 0.00 0.00 82 1016.6
20260505172504 55 186 0.0 1.7 0.00 0.00 0.00 82 1016.5
20260505172010 56 188 0.0 1.7 0.00 0.00 0.00 83 1016.5
20260505171515 55 186 0.0 1.7 0.00 0.00 0.00 82 1016.5
20260505171007 55 188 0.0 1.7 0.00 0.00 0.00 82 1016.5
20260505170508 55 289 0.9 1.7 0.00 0.00 0.00 82 1016.4
20260505170022 55 197 0.0 2.6 0.00 0.00 0.00 82 1016.4
20260505165503 55 279 0.0 2.6 0.00 0.00 0.00 83 1016.4
20260505165004 55 253 0.0 1.7 0.00 0.00 0.00 82 1016.3
20260505164503 55 254 0.0 1.7 0.00 0.00 0.00 82 1016.3
20260505164003 55 184 0.0 0.9 0.00 0.00 0.00 83 1016.3
20260505163504 55 210 0.0 0.9 0.00 0.00 0.00 82 1016.3